Regional Weather Roundup
Issued by NWS

Home | Current Version | Previous Version | Graphics & Text | Print | Product List | Glossary Off
Versions: 1 2 3 4 5 6 7 8 9 10 11 12 13 14 15 16 17 18 19 20 21 22 23 24 25 26 27 28 29 30 31 32 33 34 35 36 37 38 39 40 41 42 43 44 45 46 47 48 49 50

000
ASUS43 KDMX 300207
RWRIA

WEATHER ROUNDUP FOR IOWA
NATIONAL WEATHER SERVICE DES MOINES IA
900 PM CDT SUN MAR 29 2015

NOTE: "FAIR" INDICATES FEW OR NO CLOUDS BELOW 12,000 FEET WITH NO
SIGNIFICANT WEATHER AND/OR OBSTRUCTIONS TO VISIBILITY.

* - THESE STATIONS ARE NOT NWS STATIONS...THUS NOT UNDER NWS
QUALITY CONTROL.  THEY ALSO DO NOT REPORT WEATHER SUCH
AS PRECIPITATION OR FOG.

IAZ001>003-012>014-020>022-031>034-043>046-300300-
   NORTHWEST IOWA

CITY           SKY/WX    TMP DP  RH WIND       PRES   REMARKS
CARROLL *      CLEAR     45  23  42 NW9       30.06R
CHEROKEE *     CLEAR     46  23  39 NW7       30.07R
DENISON *      CLEAR     45  23  42 W6        30.07R
LE MARS *      CLEAR     43  23  45 CALM      30.08R
ORANGE CITY *  CLEAR     48  19  32 NW5       30.06R
SHELDON *      CLEAR     41  23  48 NW7       30.05R
SIOUX CITY     CLEAR     47  19  33 NW7       30.08R
SPENCER        CLEAR     40  25  55 NW7       30.05R
STORM LAKE *   CLEAR     46  21  36 NW10      30.07R
$$

IAZ055>058-069>071-079>083-090>094-300300-
   SOUTHWEST IOWA

CITY           SKY/WX    TMP DP  RH WIND       PRES   REMARKS
ATLANTIC *     CLEAR     46  23  39 W7        30.09R
AUDUBON *      CLEAR     43  21  42 CALM      30.09R
CLARINDA *     CLEAR     50  28  43 NW7       30.12R
COUNCIL BLFS * CLEAR     54  23  30 NW6       30.11R
CRESTON *      CLEAR     45  27  49 NW9       30.09R
HARLAN  *      CLEAR     43  25  49 NW10      30.12R
LAMONI         CLEAR     45  31  58 W9        30.07R
RED OAK *      CLEAR     45  27  49 NW6       30.11R
SHENANDOAH *   CLEAR     45  28  53 NW6       30.12R
$$

IAZ047>049-059>061-072>074-084-300300-
   CENTRAL IOWA

CITY           SKY/WX    TMP DP  RH WIND       PRES   REMARKS
AMES           CLEAR     50  24  36 NW10      30.03R
ANKENY *       CLEAR     54  23  30 NW10G17   30.04R
CHARITON *     CLEAR     50  25  37 W8        30.05R
DES MOINES     CLEAR     54  21  27 NW12      30.05R
GRINNELL*      CLEAR     46  27  46 W8        30.02R
KNOXVILLE *    CLEAR     50  23  34 NW8       30.02R
MARSHALLTOWN   CLEAR     43  29  57 NW10      30.00R
PELLA *        CLEAR     46  28  49 NW7       30.04R
PERRY *          N/A     48  25  40 NW8       30.05R
$$

IAZ004>006-015-016-023>025-035-036-300300-
   NORTH CENTRAL IOWA

CITY           SKY/WX    TMP DP  RH WIND       PRES   REMARKS
ALGONA *       CLEAR     46  27  46 NW9       30.03R
CLARION *      CLEAR     41  30  65 NW9       30.02R
ESTHERVILLE    CLEAR     43  25  49 NW12      30.03R
FORT DODGE *   CLEAR     46  25  42 NW6       30.05R
MASON CITY     CLEAR     44  30  57 NW13      30.00R
FOREST CITY *  CLEAR     43  30  61 NW8       30.00R
IOWA FALLS *     N/A     45  30  57 NW10      30.02R
$$

IAZ007>011-017>019-026>030-037>042-050>054-066-300300-
   NORTHEAST IOWA

CITY           SKY/WX    TMP DP  RH WIND       PRES   REMARKS
CEDAR RAPIDS   CLEAR     45  29  53 NW12      29.97R
CHARLES CITY * CLEAR     45  34  65 NW13      29.98R
CLINTON *      CLEAR     39  28  65 NW10      29.96R WCI  32
DECORAH *      CLEAR     43  30  61 NW9G16    29.93R
DUBUQUE        CLEAR     46  29  51 NW17G29   29.93R
MONTICELLO *   CLEAR     46  32  57 NW18      29.95R
OELWEIN *      CLEAR     46  32  57 NW20G25   29.97R
WATERLOO       CLEAR     46  32  58 NW10      29.98R
$$

IAZ064-065-067-068-078-300300-
   EAST CENTRAL IOWA

CITY           SKY/WX    TMP DP  RH WIND       PRES   REMARKS
DAVENPORT      CLEAR     42  31  64 NW10      29.95R
IOWA CITY      CLEAR     51  28  41 NW12      29.99R
MT. PLEASANT * CLEAR     52  28  40 NW10      30.00R
MUSCATINE *    CLEAR     48  30  49 NW12      29.97R
QUAD CITIES    CLEAR     50  31  48 NW13      29.94R
$$

IAZ062-063-075>077-085>089-095>099-300300-
   SOUTHEAST IOWA

CITY           SKY/WX    TMP DP  RH WIND       PRES   REMARKS
BURLINGTON     CLEAR     50  33  52 NW7       29.98R
FAIRFIELD *    CLEAR     46  28  49 NW10      30.01R
FORT MADISON * CLEAR     50  34  53 NW9       30.00R
KEOKUK *       CLEAR     52  34  50 NW7       30.00R
OSKALOOSA *      N/A     43  27  52 NW6       30.02R
CENTERVILLE *  CLEAR     43  32  65 W8        30.05R
OTTUMWA        CLEAR     47  24  40 W6        30.02R
WASHINGTON *   CLEAR     48  30  49 NW12      29.99R
$$

ABBREVIATIONS USED IN REMARKS
   TC - TEMPERATURES IN CELSIUS
  WCI - WIND CHILL INDEX
   HX - HEAT INDEX
  VSB - VISIBILITY
$$




USA.gov is the U.S. government's official web portal to all federal, state and local government web resources and services.